Time,TemperatureF,DewpointF,PressureIn,WindDirection,WindDirectionDegrees,WindSpeedMPH,WindSpeedGustMPH,Humidity,HourlyPrecipIn,Conditions,Clouds,dailyrainin,SolarRadiationWatts/m^2,SoftwareType,DateUTC
2013-01-29 00:01:00,37.2,35.1,29.98,WSW,257,4.3,6.0,92,0.00,RA,OVC,0.00,0.0,WeatherDisplay:10.37,2013-01-29 05:01:00,
2013-01-29 00:02:00,37.2,35.1,29.98,WSW,257,3.2,5.8,92,0.00,RA,OVC,0.00,0.0,WeatherDisplay:10.37,2013-01-29 05:02:00,
2013-01-29 00:03:00,37.2,35.1,29.98,WSW,257,2.4,5.0,92,0.00,RA,OVC,0.00,0.0,WeatherDisplay:10.37,2013-01-29 05:03:00,
2013-01-29 00:08:00,37.1,35.0,29.98,WSW,257,0.7,6.9,92,0.00,RA,OVC,0.00,0.0,WeatherDisplay:10.37,2013-01-29 05:08:00,
2013-01-29 00:13:00,37.1,35.0,29.99,WSW,257,2.6,5.8,92,0.00,OVC,,0.00,0.0,WeatherDisplay:10.37,2013-01-29 05:13:00,
2013-01-29 00:18:00,37.1,35.0,29.99,WSW,257,3.5,5.8,92,0.00,OVC,,0.00,0.0,WeatherDisplay:10.37,2013-01-29 05:18:00,
2013-01-29 00:23:00,37.1,35.0,29.98,WSW,257,2.3,3.5,92,0.00,OVC,,0.00,0.0,WeatherDisplay:10.37,2013-01-29 05:23:00,
2013-01-29 00:28:00,37.1,35.0,29.98,WSW,257,1.3,5.8,92,0.00,OVC,,0.00,0.0,WeatherDisplay:10.37,2013-01-29 05:28:00,
2013-01-29 00:33:00,37.2,35.1,29.98,West,259,4.3,6.0,92,0.00,OVC,,0.00,0.0,WeatherDisplay:10.37,2013-01-29 05:33:00,
2013-01-29 00:38:00,37.2,35.1,29.98,West,259,3.1,5.8,92,0.00,OVC,,0.00,0.0,WeatherDisplay:10.37,2013-01-29 05:38:00,
2013-01-29 00:43:00,37.1,35.0,29.99,WSW,257,3.3,6.0,92,0.00,OVC,,0.00,0.0,WeatherDisplay:10.37,2013-01-29 05:43:00,
2013-01-29 00:48:00,37.1,35.0,29.99,WSW,256,4.9,6.0,92,0.00,OVC,,0.00,0.0,WeatherDisplay:10.37,2013-01-29 05:48:00,
2013-01-29 00:53:00,37.0,34.9,29.98,WSW,254,4.8,7.0,92,0.00,OVC,,0.00,0.0,WeatherDisplay:10.37,2013-01-29 05:53:00,
2013-01-29 00:58:00,36.9,34.8,29.99,WSW,253,5.0,7.0,92,0.00,OVC,,0.00,0.0,WeatherDisplay:10.37,2013-01-29 05:58:00,
2013-01-29 01:03:00,36.8,34.7,29.99,WSW,252,2.7,5.0,92,0.00,OVC,,0.00,0.0,WeatherDisplay:10.37,2013-01-29 06:03:00,
2013-01-29 01:08:00,36.8,34.7,29.99,WSW,252,2.8,4.0,92,0.00,OVC,,0.00,0.0,WeatherDisplay:10.37,2013-01-29 06:08:00,
2013-01-29 01:13:00,36.7,34.6,29.99,WSW,252,1.9,3.5,92,0.00,OVC,,0.00,0.0,WeatherDisplay:10.37,2013-01-29 06:13:00,
2013-01-29 01:18:00,36.7,34.6,29.99,WSW,252,1.5,3.5,92,0.00,OVC,,0.00,0.0,WeatherDisplay:10.37,2013-01-29 06:18:00,
2013-01-29 01:23:00,36.6,34.5,29.99,WSW,252,3.2,5.0,92,0.00,OVC,,0.00,0.0,WeatherDisplay:10.37,2013-01-29 06:23:00,
2013-01-29 01:28:00,36.6,34.5,29.99,WSW,252,1.8,4.6,92,0.00,OVC,,0.00,0.0,WeatherDisplay:10.37,2013-01-29 06:28:00,
2013-01-29 01:33:00,36.6,34.5,29.99,WSW,252,3.5,5.0,92,0.00,OVC,,0.00,0.0,WeatherDisplay:10.37,2013-01-29 06:33:00,
2013-01-29 01:38:00,36.6,34.5,29.99,WSW,252,2.2,3.5,92,0.00,OVC,,0.00,0.0,WeatherDisplay:10.37,2013-01-29 06:38:00,
2013-01-29 01:43:00,36.5,34.4,29.99,WSW,252,1.7,3.5,92,0.00,OVC,,0.00,0.0,WeatherDisplay:10.37,2013-01-29 06:43:00,
2013-01-29 01:48:00,36.5,34.4,29.99,WSW,252,3.1,4.0,92,0.00,OVC,,0.00,0.0,WeatherDisplay:10.37,2013-01-29 06:48:00,
2013-01-29 01:53:00,36.4,34.3,29.99,WSW,252,2.3,4.0,92,0.00,OVC,,0.00,0.0,WeatherDisplay:10.37,2013-01-29 06:53:00,
2013-01-29 01:58:00,36.4,34.3,30.00,WSW,252,1.5,3.5,92,0.00,OVC,,0.00,0.0,WeatherDisplay:10.37,2013-01-29 06:58:00,
2013-01-29 02:03:00,36.4,34.3,30.00,WSW,252,1.8,5.8,92,0.00,OVC,,0.00,0.0,WeatherDisplay:10.37,2013-01-29 07:03:00,
2013-01-29 02:08:00,36.3,34.2,30.00,WSW,252,2.3,4.6,92,0.00,OVC,,0.00,0.0,WeatherDisplay:10.37,2013-01-29 07:08:00,
2013-01-29 02:13:00,36.2,34.1,30.00,WSW,251,3.3,5.8,92,0.00,OVC,,0.00,0.0,WeatherDisplay:10.37,2013-01-29 07:13:00,
2013-01-29 02:18:00,36.2,34.1,30.00,WSW,251,3.4,5.0,92,0.00,OVC,,0.00,0.0,WeatherDisplay:10.37,2013-01-29 07:18:00,
2013-01-29 02:23:00,36.1,34.0,30.01,WSW,251,2.3,3.5,92,0.00,OVC,,0.00,0.0,WeatherDisplay:10.37,2013-01-29 07:23:00,
2013-01-29 02:28:00,36.1,34.0,30.01,WSW,251,1.8,3.5,92,0.00,OVC,,0.00,0.0,WeatherDisplay:10.37,2013-01-29 07:28:00,
2013-01-29 02:34:00,36.1,34.0,30.01,WSW,251,3.0,5.0,92,0.00,OVC,,0.00,0.0,WeatherDisplay:10.37,2013-01-29 07:34:00,
2013-01-29 02:39:00,36.1,34.0,30.01,WSW,251,2.3,5.0,92,0.00,OVC,,0.00,0.0,WeatherDisplay:10.37,2013-01-29 07:39:00,
2013-01-29 02:44:00,36.1,34.0,30.01,WSW,250,2.6,4.6,92,0.00,OVC,,0.00,0.0,WeatherDisplay:10.37,2013-01-29 07:44:00,
2013-01-29 02:49:00,36.2,34.1,30.01,WSW,247,1.5,3.5,92,0.00,OVC,,0.00,0.0,WeatherDisplay:10.37,2013-01-29 07:49:00,
2013-01-29 02:54:00,36.2,34.1,30.01,WSW,247,2.4,4.6,92,0.00,OVC,,0.00,0.0,WeatherDisplay:10.37,2013-01-29 07:54:00,
2013-01-29 02:59:00,36.3,34.2,30.00,WSW,247,1.4,4.0,92,0.00,OVC,,0.00,0.0,WeatherDisplay:10.37,2013-01-29 07:59:00,
2013-01-29 03:04:00,36.3,34.2,30.00,WSW,247,3.4,5.0,92,0.00,OVC,,0.00,0.0,WeatherDisplay:10.37,2013-01-29 08:04:00,
2013-01-29 03:09:00,36.4,34.3,30.01,WSW,247,3.1,5.0,92,0.00,OVC,,0.00,0.0,WeatherDisplay:10.37,2013-01-29 08:09:00,
2013-01-29 03:14:00,36.4,34.3,30.01,WSW,247,2.6,4.0,92,0.00,OVC,,0.00,0.0,WeatherDisplay:10.37,2013-01-29 08:14:00,
2013-01-29 03:19:00,36.4,34.3,30.00,WSW,247,3.2,5.0,92,0.00,OVC,,0.00,0.0,WeatherDisplay:10.37,2013-01-29 08:19:00,
2013-01-29 03:24:00,36.3,34.2,30.00,WSW,247,1.4,2.3,92,0.00,OVC,,0.00,0.0,WeatherDisplay:10.37,2013-01-29 08:24:00,
2013-01-29 03:29:00,36.3,34.2,30.01,WSW,247,1.8,3.5,92,0.00,OVC,,0.00,0.0,WeatherDisplay:10.37,2013-01-29 08:29:00,
2013-01-29 03:34:00,36.3,34.2,30.00,WSW,247,2.7,4.0,92,0.00,OVC,,0.00,0.0,WeatherDisplay:10.37,2013-01-29 08:34:00,
2013-01-29 03:39:00,36.2,34.1,30.00,WSW,247,1.4,3.5,92,0.00,OVC,,0.00,0.0,WeatherDisplay:10.37,2013-01-29 08:39:00,
2013-01-29 03:44:00,36.2,34.1,30.00,WSW,247,2.1,3.5,92,0.00,OVC,,0.00,0.0,WeatherDisplay:10.37,2013-01-29 08:44:00,
2013-01-29 03:49:00,36.2,34.1,30.00,WSW,247,1.8,3.5,92,0.00,OVC,,0.00,0.0,WeatherDisplay:10.37,2013-01-29 08:49:00,
2013-01-29 03:54:00,36.1,34.0,30.00,WSW,247,0.0,1.1,92,0.00,OVC,,0.00,0.0,WeatherDisplay:10.37,2013-01-29 08:54:00,
2013-01-29 03:59:00,36.1,34.0,30.00,WSW,247,2.2,3.5,92,0.00,OVC,,0.00,0.0,WeatherDisplay:10.37,2013-01-29 08:59:00,
2013-01-29 04:04:00,36.0,33.9,30.00,WSW,247,1.3,3.5,92,0.00,OVC,,0.00,0.0,WeatherDisplay:10.37,2013-01-29 09:04:00,
2013-01-29 04:09:00,36.0,33.9,30.00,WSW,247,0.3,2.3,92,0.00,OVC,,0.00,0.0,WeatherDisplay:10.37,2013-01-29 09:09:00,
2013-01-29 04:14:00,35.9,33.8,30.00,WSW,247,2.0,4.0,92,0.00,OVC,,0.00,0.0,WeatherDisplay:10.37,2013-01-29 09:14:00,
2013-01-29 04:19:00,35.9,33.8,30.00,WSW,247,2.5,4.0,92,0.00,OVC,,0.00,0.0,WeatherDisplay:10.37,2013-01-29 09:19:00,
2013-01-29 04:24:00,35.8,33.7,30.00,WSW,247,2.1,3.5,92,0.00,OVC,,0.00,0.0,WeatherDisplay:10.37,2013-01-29 09:24:00,
2013-01-29 04:29:00,35.8,33.7,30.00,WSW,247,1.3,3.0,92,0.00,OVC,,0.00,0.0,WeatherDisplay:10.37,2013-01-29 09:29:00,
2013-01-29 04:34:00,35.7,33.6,30.00,WSW,247,0.7,2.3,92,0.00,OVC,,0.00,0.0,WeatherDisplay:10.37,2013-01-29 09:34:00,
2013-01-29 04:39:00,35.7,33.6,30.00,WSW,247,0.4,2.3,92,0.00,OVC,,0.00,0.0,WeatherDisplay:10.37,2013-01-29 09:39:00,
2013-01-29 04:44:00,35.7,33.6,30.00,WSW,247,0.7,3.5,92,0.00,OVC,,0.00,0.0,WeatherDisplay:10.37,2013-01-29 09:44:00,
2013-01-29 04:49:00,35.6,33.5,30.00,WSW,247,0.2,2.3,92,0.00,OVC,,0.00,0.0,WeatherDisplay:10.37,2013-01-29 09:49:00,
2013-01-29 04:54:00,35.6,33.5,30.01,WSW,247,1.6,3.5,92,0.00,OVC,,0.00,0.0,WeatherDisplay:10.37,2013-01-29 09:54:00,
2013-01-29 04:59:00,35.6,33.5,30.01,WSW,247,3.5,5.0,92,0.00,OVC,,0.00,0.0,WeatherDisplay:10.37,2013-01-29 09:59:00,
2013-01-29 05:04:00,35.5,33.4,30.01,WSW,247,0.3,3.5,92,0.00,OVC,,0.00,0.0,WeatherDisplay:10.37,2013-01-29 10:04:00,
2013-01-29 05:09:00,35.5,33.4,30.02,WSW,247,1.3,2.3,92,0.00,OVC,,0.00,0.0,WeatherDisplay:10.37,2013-01-29 10:09:00,
2013-01-29 05:14:00,35.5,33.4,30.02,WSW,247,0.8,2.3,92,0.00,OVC,,0.00,0.0,WeatherDisplay:10.37,2013-01-29 10:14:00,
2013-01-29 05:19:00,35.5,33.4,30.02,WSW,247,0.0,0.0,92,0.00,OVC,,0.00,0.0,WeatherDisplay:10.37,2013-01-29 10:19:00,
2013-01-29 05:24:00,35.5,33.4,30.02,WSW,247,0.0,0.0,92,0.00,OVC,,0.00,0.0,WeatherDisplay:10.37,2013-01-29 10:24:00,
2013-01-29 05:29:00,35.5,33.4,30.01,WSW,247,0.0,0.0,92,0.00,OVC,,0.00,0.0,WeatherDisplay:10.37,2013-01-29 10:29:00,
2013-01-29 05:34:00,35.5,33.4,30.01,WSW,247,0.0,0.0,92,0.00,OVC,,0.00,0.0,WeatherDisplay:10.37,2013-01-29 10:34:00,
2013-01-29 05:39:00,35.4,33.3,30.00,WSW,247,0.0,0.0,92,0.00,OVC,,0.00,0.0,WeatherDisplay:10.37,2013-01-29 10:39:00,
2013-01-29 05:44:00,35.4,33.3,30.01,WSW,247,0.0,0.0,92,0.00,OVC,,0.00,0.0,WeatherDisplay:10.37,2013-01-29 10:44:00,
2013-01-29 05:49:00,35.4,33.3,30.00,WSW,247,0.0,0.0,92,0.00,OVC,,0.00,0.0,WeatherDisplay:10.37,2013-01-29 10:49:00,
2013-01-29 05:54:00,35.3,33.2,30.00,WSW,247,0.0,0.0,92,0.00,OVC,,0.00,0.0,WeatherDisplay:10.37,2013-01-29 10:54:00,
2013-01-29 05:59:00,35.3,33.2,30.00,WSW,247,0.0,0.0,92,0.00,OVC,,0.00,0.0,WeatherDisplay:10.37,2013-01-29 10:59:00,
2013-01-29 06:04:00,35.3,33.2,29.99,WSW,247,0.0,0.0,92,0.00,OVC,,0.00,0.0,WeatherDisplay:10.37,2013-01-29 11:04:00,
2013-01-29 06:09:00,35.2,33.1,29.99,WSW,247,0.0,0.0,92,0.00,OVC,,0.00,0.0,WeatherDisplay:10.37,2013-01-29 11:09:00,
2013-01-29 06:14:00,35.2,33.1,29.99,WSW,247,0.0,0.0,92,0.00,OVC,,0.00,0.0,WeatherDisplay:10.37,2013-01-29 11:14:00,
2013-01-29 06:19:00,35.1,33.0,29.99,WSW,247,0.0,0.0,92,0.00,OVC,,0.00,0.0,WeatherDisplay:10.37,2013-01-29 11:19:00,
2013-01-29 06:24:00,35.1,33.0,30.00,WSW,247,0.0,0.0,92,0.00,OVC,,0.00,0.0,WeatherDisplay:10.37,2013-01-29 11:24:00,
2013-01-29 06:29:00,35.1,33.0,30.00,WSW,247,0.0,0.0,92,0.00,OVC,,0.00,0.0,WeatherDisplay:10.37,2013-01-29 11:29:00,
2013-01-29 06:34:00,35.1,33.0,30.00,WSW,247,0.0,0.0,92,0.00,OVC,,0.00,0.0,WeatherDisplay:10.37,2013-01-29 11:34:00,
2013-01-29 06:39:00,35.1,33.0,30.00,WSW,247,0.0,0.0,92,0.00,OVC,,0.00,0.0,WeatherDisplay:10.37,2013-01-29 11:39:00,
2013-01-29 06:44:00,35.1,33.0,30.00,WSW,247,0.0,0.0,92,0.00,OVC,,0.00,0.0,WeatherDisplay:10.37,2013-01-29 11:44:00,
2013-01-29 06:49:00,35.1,33.0,29.99,WSW,247,0.0,0.0,92,0.00,OVC,,0.00,0.0,WeatherDisplay:10.37,2013-01-29 11:49:00,
2013-01-29 06:54:00,35.1,33.0,29.99,WSW,247,0.0,1.1,92,0.00,OVC,,0.00,0.0,WeatherDisplay:10.37,2013-01-29 11:54:00,
2013-01-29 06:59:00,35.1,33.0,30.00,WSW,247,0.0,0.0,92,0.00,OVC,,0.00,0.0,WeatherDisplay:10.37,2013-01-29 11:59:00,
2013-01-29 07:04:00,35.0,32.9,29.99,WSW,247,0.0,2.3,92,0.00,OVC,,0.00,0.0,WeatherDisplay:10.37,2013-01-29 12:04:00,
2013-01-29 07:09:00,35.0,32.9,29.99,WSW,247,0.0,0.0,92,0.00,OVC,,0.00,0.0,WeatherDisplay:10.37,2013-01-29 12:09:00,
2013-01-29 07:14:00,35.0,32.9,29.99,WSW,247,0.0,1.1,92,0.00,OVC,,0.00,0.0,WeatherDisplay:10.37,2013-01-29 12:14:00,
2013-01-29 07:19:00,35.0,32.9,29.99,WSW,247,0.0,0.0,92,0.00,OVC,,0.00,0.0,WeatherDisplay:10.37,2013-01-29 12:19:00,
2013-01-29 07:24:00,35.0,32.9,29.99,WSW,247,0.0,0.0,92,0.00,OVC,,0.00,0.0,WeatherDisplay:10.37,2013-01-29 12:24:00,
2013-01-29 07:29:00,35.0,32.9,29.99,WSW,247,1.4,2.3,92,0.00,OVC,,0.00,0.0,WeatherDisplay:10.37,2013-01-29 12:29:00,
2013-01-29 07:34:00,35.0,32.9,29.99,WSW,247,0.0,0.0,92,0.00,OVC,,0.00,0.0,WeatherDisplay:10.37,2013-01-29 12:34:00,
2013-01-29 07:39:00,35.1,33.0,29.99,WSW,247,0.0,0.0,92,0.00,OVC,,0.00,0.0,WeatherDisplay:10.37,2013-01-29 12:39:00,
2013-01-29 07:44:00,35.1,33.0,29.99,WSW,247,0.0,0.0,92,0.00,OVC,,0.00,7.0,WeatherDisplay:10.37,2013-01-29 12:44:00,
2013-01-29 07:49:00,35.1,33.0,29.99,WSW,247,0.0,1.1,92,0.00,OVC,,0.00,11.0,WeatherDisplay:10.37,2013-01-29 12:49:00,
2013-01-29 07:54:00,35.2,33.1,29.99,WSW,247,0.6,2.3,92,0.01,-DZ,OVC,0.01,16.0,WeatherDisplay:10.37,2013-01-29 12:54:00,
2013-01-29 07:59:00,35.2,33.1,29.98,WSW,247,0.0,2.3,92,0.01,-DZ,OVC,0.01,21.0,WeatherDisplay:10.37,2013-01-29 12:59:00,
2013-01-29 08:04:00,35.3,33.2,29.99,WSW,247,0.0,0.0,92,0.01,-DZ,OVC,0.01,26.0,WeatherDisplay:10.37,2013-01-29 13:04:00,
2013-01-29 08:09:00,35.4,33.6,29.99,WSW,247,0.0,0.0,93,0.01,-DZ,OVC,0.01,33.0,WeatherDisplay:10.37,2013-01-29 13:09:00,
2013-01-29 08:14:00,35.5,33.7,29.99,WSW,247,0.0,0.0,93,0.01,-DZ,OVC,0.01,23.0,WeatherDisplay:10.37,2013-01-29 13:14:00,
2013-01-29 08:19:00,35.5,33.7,29.99,WSW,247,0.0,0.0,93,0.01,-DZ,OVC,0.01,16.0,WeatherDisplay:10.37,2013-01-29 13:19:00,
2013-01-29 08:24:00,35.6,33.5,29.98,WSW,247,0.0,0.0,92,0.01,-DZ,OVC,0.01,19.0,WeatherDisplay:10.37,2013-01-29 13:24:00,
2013-01-29 08:29:00,35.8,33.7,29.98,WSW,247,0.6,1.1,92,0.01,-DZ,OVC,0.01,25.0,WeatherDisplay:10.37,2013-01-29 13:29:00,
2013-01-29 08:35:00,35.9,33.8,29.98,WSW,247,0.0,0.0,92,0.01,-DZ,OVC,0.01,23.0,WeatherDisplay:10.37,2013-01-29 13:35:00,
2013-01-29 08:40:00,36.0,34.2,29.99,WSW,247,0.0,1.1,93,0.01,-DZ,OVC,0.01,21.0,WeatherDisplay:10.37,2013-01-29 13:40:00,
2013-01-29 08:45:00,36.1,34.3,29.98,WSW,247,0.9,2.3,93,0.01,-DZ,OVC,0.01,25.0,WeatherDisplay:10.37,2013-01-29 13:45:00,
2013-01-29 08:50:00,36.3,34.5,29.98,WSW,247,1.0,2.3,93,0.01,-DZ,OVC,0.01,25.0,WeatherDisplay:10.37,2013-01-29 13:50:00,
2013-01-29 08:55:00,36.4,34.6,29.98,WSW,247,0.9,2.3,93,0.00,-DZ,OVC,0.01,30.0,WeatherDisplay:10.37,2013-01-29 13:55:00,
2013-01-29 09:00:00,36.5,34.7,29.97,WSW,247,0.5,2.3,93,0.00,-DZ,OVC,0.01,47.0,WeatherDisplay:10.37,2013-01-29 14:00:00,
2013-01-29 09:05:00,36.6,34.8,29.97,WSW,247,1.5,3.5,93,0.00,-DZ,OVC,0.01,44.0,WeatherDisplay:10.37,2013-01-29 14:05:00,
2013-01-29 09:10:00,36.8,35.0,29.97,WSW,247,1.2,3.5,93,0.00,-DZ,OVC,0.01,35.0,WeatherDisplay:10.37,2013-01-29 14:10:00,
2013-01-29 09:15:00,36.9,35.1,29.96,WSW,247,2.1,3.5,93,0.00,-DZ,OVC,0.01,44.0,WeatherDisplay:10.37,2013-01-29 14:15:00,
2013-01-29 09:20:00,37.0,35.2,29.96,WSW,247,0.6,2.3,93,0.00,-DZ,OVC,0.01,35.0,WeatherDisplay:10.37,2013-01-29 14:20:00,
2013-01-29 09:25:00,37.1,35.3,29.96,WSW,247,0.0,1.1,93,0.00,OVC,,0.01,33.0,WeatherDisplay:10.37,2013-01-29 14:25:00,
2013-01-29 09:30:00,37.3,35.5,29.94,WSW,247,2.1,3.5,93,0.00,OVC,,0.01,67.0,WeatherDisplay:10.37,2013-01-29 14:30:00,
2013-01-29 09:35:00,37.5,35.7,29.94,SSE,158,1.7,8.1,93,0.00,OVC,,0.01,81.0,WeatherDisplay:10.37,2013-01-29 14:35:00,
2013-01-29 09:40:00,37.7,35.9,29.94,SSE,158,2.2,4.0,93,0.00,OVC,,0.01,53.0,WeatherDisplay:10.37,2013-01-29 14:40:00,
2013-01-29 09:45:00,38.0,36.2,29.94,SSE,149,4.0,7.0,93,0.00,OVC,,0.01,65.0,WeatherDisplay:10.37,2013-01-29 14:45:00,
2013-01-29 09:50:00,38.3,36.5,29.94,SE,144,0.3,3.5,93,0.00,OVC,,0.01,35.0,WeatherDisplay:10.37,2013-01-29 14:50:00,
2013-01-29 09:55:00,38.4,36.6,29.93,SE,144,2.1,5.0,93,0.00,OVC,,0.01,39.0,WeatherDisplay:10.37,2013-01-29 14:55:00,
2013-01-29 10:00:00,38.6,36.8,29.93,SE,143,2.3,3.5,93,0.00,OVC,,0.01,51.0,WeatherDisplay:10.37,2013-01-29 15:00:00,
2013-01-29 10:05:00,38.8,36.9,29.93,SE,141,2.8,5.8,93,0.00,OVC,,0.01,56.0,WeatherDisplay:10.37,2013-01-29 15:05:00,
2013-01-29 10:10:00,39.0,37.1,29.92,SE,138,3.2,5.0,93,0.00,OVC,,0.01,33.0,WeatherDisplay:10.37,2013-01-29 15:10:00,
2013-01-29 10:15:00,39.1,37.2,29.92,SE,136,4.5,7.0,93,0.00,OVC,,0.01,42.0,WeatherDisplay:10.37,2013-01-29 15:15:00,
2013-01-29 10:20:00,39.3,37.4,29.91,SE,135,3.0,5.0,93,0.00,OVC,,0.01,63.0,WeatherDisplay:10.37,2013-01-29 15:20:00,
2013-01-29 10:25:00,39.5,37.6,29.91,SE,135,1.1,3.5,93,0.00,OVC,,0.01,95.0,WeatherDisplay:10.37,2013-01-29 15:25:00,
2013-01-29 10:30:00,39.7,37.8,29.90,SE,135,2.3,3.5,93,0.00,OVC,,0.01,107.0,WeatherDisplay:10.37,2013-01-29 15:30:00,
2013-01-29 10:35:00,40.0,38.1,29.90,SE,134,4.1,6.0,93,0.00,OVC,,0.01,127.0,WeatherDisplay:10.37,2013-01-29 15:35:00,
2013-01-29 10:40:00,40.3,38.4,29.90,SE,134,2.4,4.0,93,0.00,OVC,,0.01,134.0,WeatherDisplay:10.37,2013-01-29 15:40:00,
2013-01-29 10:45:00,40.6,38.7,29.90,SE,134,2.5,3.5,93,0.00,OVC,,0.01,77.0,WeatherDisplay:10.37,2013-01-29 15:45:00,
2013-01-29 10:50:00,41.0,39.1,29.90,SE,134,0.0,3.5,93,0.00,OVC,,0.01,49.0,WeatherDisplay:10.37,2013-01-29 15:50:00,
2013-01-29 10:55:00,41.2,39.3,29.90,SE,134,0.1,3.5,93,0.00,OVC,,0.01,39.0,WeatherDisplay:10.37,2013-01-29 15:55:00,
2013-01-29 11:00:00,41.5,39.6,29.89,SE,134,1.0,3.5,93,0.00,OVC,,0.01,60.0,WeatherDisplay:10.37,2013-01-29 16:00:00,
2013-01-29 11:05:00,41.8,39.9,29.89,SE,134,2.0,3.5,93,0.00,OVC,,0.01,49.0,WeatherDisplay:10.37,2013-01-29 16:05:00,
2013-01-29 11:10:00,42.0,40.1,29.88,SE,134,2.1,4.6,93,0.00,OVC,,0.01,83.0,WeatherDisplay:10.37,2013-01-29 16:10:00,
2013-01-29 11:15:00,42.3,40.4,29.88,SE,134,0.4,3.5,93,0.00,OVC,,0.01,46.0,WeatherDisplay:10.37,2013-01-29 16:15:00,
2013-01-29 11:20:00,42.6,40.7,29.88,SE,140,1.9,4.0,93,0.00,OVC,,0.01,37.0,WeatherDisplay:10.37,2013-01-29 16:20:00,
2013-01-29 11:25:00,42.9,41.0,29.87,SE,140,0.2,3.5,93,0.00,OVC,,0.01,40.0,WeatherDisplay:10.37,2013-01-29 16:25:00,
2013-01-29 11:30:00,43.1,41.2,29.87,SE,140,0.9,2.3,93,0.00,OVC,,0.01,37.0,WeatherDisplay:10.37,2013-01-29 16:30:00,
2013-01-29 11:35:00,43.3,41.4,29.87,SE,140,1.5,2.3,93,0.00,OVC,,0.01,26.0,WeatherDisplay:10.37,2013-01-29 16:35:00,
2013-01-29 11:40:00,43.4,41.5,29.88,SE,140,2.0,3.5,93,0.00,OVC,,0.01,12.0,WeatherDisplay:10.37,2013-01-29 16:40:00,
2013-01-29 11:45:00,43.3,41.4,29.90,SE,140,3.4,5.0,93,0.00,OVC,,0.01,5.0,WeatherDisplay:10.37,2013-01-29 16:45:00,
2013-01-29 11:50:00,43.2,41.3,29.97,NW,310,10.6,22.0,93,0.05,RA,OVC,0.06,9.0,WeatherDisplay:10.37,2013-01-29 16:50:00,
2013-01-29 11:55:00,42.7,40.8,29.94,NNW,336,4.3,9.2,93,0.13,RA,OVC,0.14,11.0,WeatherDisplay:10.37,2013-01-29 16:55:00,
2013-01-29 12:00:00,42.5,40.6,29.93,NNW,340,3.5,5.8,93,0.14,RA,OVC,0.15,11.0,WeatherDisplay:10.37,2013-01-29 17:00:00,
2013-01-29 12:05:00,42.3,40.4,29.91,North,7,3.1,5.0,93,0.15, +RA,OVC,0.16,12.0,WeatherDisplay:10.37,2013-01-29 17:05:00,
2013-01-29 12:10:00,42.2,40.3,29.91,North,9,1.7,3.5,93,0.16, +RA,OVC,0.18,12.0,WeatherDisplay:10.37,2013-01-29 17:10:00,
2013-01-29 12:15:00,42.1,40.2,29.88,East,80,3.8,6.0,93,0.18, +RA,OVC,0.19,16.0,WeatherDisplay:10.37,2013-01-29 17:15:00,
2013-01-29 12:20:00,42.1,40.2,29.86,ESE,113,3.9,8.1,93,0.19, +RA,OVC,0.20,21.0,WeatherDisplay:10.37,2013-01-29 17:20:00,
2013-01-29 12:25:00,42.1,40.2,29.85,ESE,111,4.4,7.0,93,0.20, +RA,OVC,0.21,37.0,WeatherDisplay:10.37,2013-01-29 17:25:00,
2013-01-29 12:30:00,42.2,40.3,29.86,SE,145,5.8,10.0,93,0.21, +RA,OVC,0.22,111.0,WeatherDisplay:10.37,2013-01-29 17:30:00,
2013-01-29 12:35:00,42.4,40.5,29.86,SSE,151,5.2,10.0,93,0.21,-RA,OVC,0.22,104.0,WeatherDisplay:10.37,2013-01-29 17:35:00,
2013-01-29 12:40:00,42.7,40.8,29.86,SSE,151,2.6,6.0,93,0.21,-RA,OVC,0.22,51.0,WeatherDisplay:10.37,2013-01-29 17:40:00,
2013-01-29 12:45:00,43.0,41.1,29.87,SSE,151,0.7,6.9,93,0.21,-RA,OVC,0.22,102.0,WeatherDisplay:10.37,2013-01-29 17:45:00,
2013-01-29 12:50:00,43.3,41.4,29.87,SSE,151,0.9,2.0,93,0.16,-RA,OVC,0.22,44.0,WeatherDisplay:10.37,2013-01-29 17:50:00,
2013-01-29 12:55:00,43.5,41.6,29.87,SSE,151,0.0,1.1,93,0.08,-RA,OVC,0.22,47.0,WeatherDisplay:10.37,2013-01-29 17:55:00,
2013-01-29 13:00:00,43.6,41.7,29.86,SSE,151,0.2,1.1,93,0.08,-RA,OVC,0.23,40.0,WeatherDisplay:10.37,2013-01-29 18:00:00,
2013-01-29 13:05:00,43.9,42.0,29.85,SSE,151,2.4,4.0,93,0.07,RA,OVC,0.23,26.0,WeatherDisplay:10.37,2013-01-29 18:05:00,
2013-01-29 13:10:00,44.1,42.2,29.85,SSE,151,0.4,3.5,93,0.06,OVC,,0.23,23.0,WeatherDisplay:10.37,2013-01-29 18:10:00,
2013-01-29 13:15:00,44.3,42.4,29.84,SSE,151,2.5,5.0,93,0.04,OVC,,0.23,21.0,WeatherDisplay:10.37,2013-01-29 18:15:00,
2013-01-29 13:20:00,44.8,42.9,29.83,SSE,154,4.8,8.1,93,0.04,RA,OVC,0.24,42.0,WeatherDisplay:10.37,2013-01-29 18:20:00,
2013-01-29 13:26:00,45.6,43.7,29.83,SSE,163,5.6,8.1,93,0.03,-RA,OVC,0.24,51.0,WeatherDisplay:10.37,2013-01-29 18:26:00,
2013-01-29 13:31:00,46.2,44.3,29.82,South,172,4.3,7.0,93,0.02,-RA,OVC,0.24,97.0,WeatherDisplay:10.37,2013-01-29 18:31:00,
2013-01-29 13:36:00,47.0,45.1,29.82,South,170,3.6,6.0,93,0.02,-RA,OVC,0.24,65.0,WeatherDisplay:10.37,2013-01-29 18:36:00,
2013-01-29 13:41:00,47.5,45.6,29.83,South,170,0.5,4.6,93,0.02,-RA,OVC,0.24,88.0,WeatherDisplay:10.37,2013-01-29 18:41:00,
2013-01-29 13:46:00,47.9,46.0,29.82,South,171,1.8,4.0,93,0.02,-RA,OVC,0.24,72.0,WeatherDisplay:10.37,2013-01-29 18:46:00,
2013-01-29 13:51:00,48.3,46.7,29.82,South,171,0.4,3.5,94,0.02,-RA,OVC,0.24,40.0,WeatherDisplay:10.37,2013-01-29 18:51:00,
2013-01-29 13:56:00,48.6,47.0,29.82,South,171,0.4,2.3,94,0.02,OVC,,0.24,53.0,WeatherDisplay:10.37,2013-01-29 18:56:00,
2013-01-29 14:01:00,48.8,47.2,29.81,South,171,1.4,3.5,94,0.01,OVC,,0.24,63.0,WeatherDisplay:10.37,2013-01-29 19:01:00,
2013-01-29 14:06:00,49.0,47.3,29.81,South,171,0.5,3.5,94,0.01,-RA,OVC,0.24,32.0,WeatherDisplay:10.37,2013-01-29 19:06:00,
2013-01-29 14:11:00,49.2,47.5,29.81,South,171,1.1,3.5,94,0.01,-RA,OVC,0.24,33.0,WeatherDisplay:10.37,2013-01-29 19:11:00,
2013-01-29 14:16:00,49.3,47.4,29.81,South,171,1.8,4.6,93,0.01,-RA,OVC,0.24,30.0,WeatherDisplay:10.37,2013-01-29 19:16:00,
2013-01-29 14:21:00,49.4,47.7,29.81,South,171,2.1,5.0,94,0.00,-RA,OVC,0.24,26.0,WeatherDisplay:10.37,2013-01-29 19:21:00,
2013-01-29 14:26:00,49.5,47.8,29.81,South,171,1.2,3.5,94,0.00,-RA,OVC,0.24,23.0,WeatherDisplay:10.37,2013-01-29 19:26:00,
2013-01-29 14:31:00,49.5,47.8,29.81,South,171,3.3,5.8,94,0.00,-RA,OVC,0.24,28.0,WeatherDisplay:10.37,2013-01-29 19:31:00,
2013-01-29 14:36:00,49.5,47.8,29.81,South,172,1.2,6.9,94,0.00,-RA,OVC,0.24,18.0,WeatherDisplay:10.37,2013-01-29 19:36:00,
2013-01-29 14:41:00,49.6,47.7,29.81,South,180,2.8,6.0,93,0.00,-RA,OVC,0.24,18.0,WeatherDisplay:10.37,2013-01-29 19:41:00,
2013-01-29 14:46:00,49.6,47.7,29.81,South,181,2.4,6.9,93,0.00,-RA,OVC,0.24,26.0,WeatherDisplay:10.37,2013-01-29 19:46:00,
2013-01-29 14:51:00,49.7,47.8,29.81,South,180,1.7,5.8,93,0.00,-RA,OVC,0.24,37.0,WeatherDisplay:10.37,2013-01-29 19:51:00,
2013-01-29 14:56:00,49.9,48.2,29.81,South,187,2.4,6.0,94,0.00,-RA,OVC,0.24,19.0,WeatherDisplay:10.37,2013-01-29 19:56:00,
2013-01-29 14:58:00,50.1,48.2,29.81,South,189,2.6,8.1,93,0.00,-RA,OVC,0.24,11.0,WeatherDisplay:10.37,2013-01-29 19:58:00,
2013-01-29 15:03:00,50.4,48.5,29.81,SW,221,3.1,8.1,93,0.00,-RA,OVC,0.24,9.0,WeatherDisplay:10.37,2013-01-29 20:03:00,
2013-01-29 15:08:00,50.6,48.9,29.81,SW,217,4.5,12.7,94,0.01,-RA,OVC,0.25,16.0,WeatherDisplay:10.37,2013-01-29 20:08:00,
2013-01-29 15:13:00,50.8,49.1,29.81,SSW,201,2.9,9.2,94,0.01,-RA,OVC,0.25,19.0,WeatherDisplay:10.37,2013-01-29 20:13:00,
2013-01-29 15:18:00,51.0,49.0,29.81,SW,227,5.0,10.0,93,0.01,-RA,OVC,0.26,18.0,WeatherDisplay:10.37,2013-01-29 20:18:00,
2013-01-29 15:23:00,51.1,49.1,29.81,South,171,3.1,10.4,93,0.02,-RA,OVC,0.26,12.0,WeatherDisplay:10.37,2013-01-29 20:23:00,
2013-01-29 15:28:00,51.2,49.5,29.82,SSW,202,3.9,7.0,94,0.02,-RA,OVC,0.26,12.0,WeatherDisplay:10.37,2013-01-29 20:28:00,
2013-01-29 15:33:00,51.3,49.6,29.81,SSW,202,4.7,11.5,94,0.02,-RA,OVC,0.26,21.0,WeatherDisplay:10.37,2013-01-29 20:33:00,
2013-01-29 15:38:00,51.4,49.4,29.81,SSW,192,4.8,11.5,93,0.02,-RA,OVC,0.26,11.0,WeatherDisplay:10.37,2013-01-29 20:38:00,
2013-01-29 15:44:00,51.5,49.5,29.80,SSW,213,5.0,8.1,93,0.02,-RA,OVC,0.26,16.0,WeatherDisplay:10.37,2013-01-29 20:44:00,
2013-01-29 15:49:00,51.6,49.6,29.80,SSW,195,5.4,10.4,93,0.02,-RA,OVC,0.26,11.0,WeatherDisplay:10.37,2013-01-29 20:49:00,
2013-01-29 15:54:00,51.8,49.8,29.80,SSW,209,4.0,10.4,93,0.02,OVC,,0.26,11.0,WeatherDisplay:10.37,2013-01-29 20:54:00,
2013-01-29 15:59:00,51.9,49.9,29.80,SSW,209,2.3,11.5,93,0.02,OVC,,0.26,11.0,WeatherDisplay:10.37,2013-01-29 20:59:00,
2013-01-29 16:04:00,52.1,50.1,29.79,South,183,4.3,9.2,93,0.02,OVC,,0.26,11.0,WeatherDisplay:10.37,2013-01-29 21:04:00,
2013-01-29 16:09:00,52.2,50.2,29.79,SW,229,5.5,10.0,93,0.01,OVC,,0.26,9.0,WeatherDisplay:10.37,2013-01-29 21:09:00,
2013-01-29 16:14:00,52.3,50.3,29.79,SSW,210,5.7,10.0,93,0.01,OVC,,0.26,7.0,WeatherDisplay:10.37,2013-01-29 21:14:00,
2013-01-29 16:19:00,52.4,50.4,29.80,SSW,198,4.1,10.4,93,0.01,OVC,,0.26,5.0,WeatherDisplay:10.37,2013-01-29 21:19:00,
2013-01-29 16:24:00,52.4,50.4,29.79,SSW,213,3.7,11.5,93,0.00,-RA,OVC,0.26,5.0,WeatherDisplay:10.37,2013-01-29 21:24:00,
2013-01-29 16:29:00,52.4,50.4,29.79,South,178,3.4,8.1,93,0.00,-RA,OVC,0.26,0.0,WeatherDisplay:10.37,2013-01-29 21:29:00,
2013-01-29 16:34:00,52.6,50.6,29.79,South,190,4.3,10.4,93,0.00,-RA,OVC,0.26,0.0,WeatherDisplay:10.37,2013-01-29 21:34:00,
2013-01-29 16:39:00,52.7,50.7,29.79,SSW,209,5.0,10.4,93,0.00,-RA,OVC,0.26,0.0,WeatherDisplay:10.37,2013-01-29 21:39:00,
2013-01-29 16:44:00,52.7,50.7,29.79,SSW,201,6.4,10.4,93,0.00,-RA,OVC,0.26,0.0,WeatherDisplay:10.37,2013-01-29 21:44:00,
2013-01-29 16:49:00,52.8,50.8,29.79,SSW,194,6.1,9.0,93,0.00,-RA,OVC,0.26,0.0,WeatherDisplay:10.37,2013-01-29 21:49:00,
2013-01-29 16:54:00,52.8,50.8,29.79,SW,216,4.7,9.2,93,0.00,-RA,OVC,0.26,0.0,WeatherDisplay:10.37,2013-01-29 21:54:00,
2013-01-29 16:59:00,52.9,50.9,29.80,SW,223,3.5,10.0,93,0.00,-RA,OVC,0.26,0.0,WeatherDisplay:10.37,2013-01-29 21:59:00,
2013-01-29 17:04:00,53.0,51.0,29.80,South,171,9.1,13.0,93,0.00,-RA,OVC,0.26,0.0,WeatherDisplay:10.37,2013-01-29 22:04:00,
2013-01-29 17:09:00,53.2,51.2,29.80,SW,215,7.5,15.0,93,0.00,-RA,OVC,0.26,0.0,WeatherDisplay:10.37,2013-01-29 22:09:00,
2013-01-29 17:14:00,53.3,51.3,29.80,South,174,5.0,9.2,93,0.00,-RA,OVC,0.26,0.0,WeatherDisplay:10.37,2013-01-29 22:14:00,
2013-01-29 17:19:00,53.3,51.3,29.80,SSW,211,6.1,9.2,93,0.00,-RA,OVC,0.26,0.0,WeatherDisplay:10.37,2013-01-29 22:19:00,
2013-01-29 17:24:00,53.3,51.3,29.80,SSW,196,4.5,10.0,93,0.00,-RA,OVC,0.26,0.0,WeatherDisplay:10.37,2013-01-29 22:24:00,
2013-01-29 17:29:00,53.4,51.4,29.80,South,185,6.1,11.5,93,0.00,-RA,OVC,0.26,0.0,WeatherDisplay:10.37,2013-01-29 22:29:00,
2013-01-29 17:34:00,53.6,51.6,29.80,SW,236,8.5,15.0,93,0.00,-RA,OVC,0.26,0.0,WeatherDisplay:10.37,2013-01-29 22:34:00,
2013-01-29 17:39:00,53.7,51.7,29.80,SSW,205,4.4,11.0,93,0.00,-RA,OVC,0.26,0.0,WeatherDisplay:10.37,2013-01-29 22:39:00,
2013-01-29 17:44:00,53.8,51.5,29.80,SSW,205,4.3,12.7,92,0.00,-RA,OVC,0.26,0.0,WeatherDisplay:10.37,2013-01-29 22:44:00,
2013-01-29 17:49:00,53.9,51.6,29.80,SSW,194,6.7,15.0,92,0.00,-RA,OVC,0.26,0.0,WeatherDisplay:10.37,2013-01-29 22:49:00,
2013-01-29 17:54:00,53.9,51.6,29.79,SW,215,5.9,11.5,92,0.00,-RA,OVC,0.26,0.0,WeatherDisplay:10.37,2013-01-29 22:54:00,
2013-01-29 17:59:00,54.0,51.7,29.79,SSW,193,3.9,11.5,92,0.00,-RA,OVC,0.26,0.0,WeatherDisplay:10.37,2013-01-29 22:59:00,
2013-01-29 18:04:00,54.1,51.8,29.79,SSW,207,4.4,11.5,92,0.00,-RA,OVC,0.26,0.0,WeatherDisplay:10.37,2013-01-29 23:04:00,
2013-01-29 18:09:00,54.2,51.9,29.79,SSW,198,4.6,11.5,92,0.00,-RA,OVC,0.26,0.0,WeatherDisplay:10.37,2013-01-29 23:09:00,
2013-01-29 18:14:00,54.2,51.9,29.78,SW,223,3.0,13.8,92,0.00,-RA,OVC,0.26,0.0,WeatherDisplay:10.37,2013-01-29 23:14:00,
2013-01-29 18:19:00,54.4,52.1,29.78,SSW,195,3.6,11.5,92,0.00,-RA,OVC,0.26,0.0,WeatherDisplay:10.37,2013-01-29 23:19:00,
2013-01-29 18:24:00,54.5,52.2,29.78,SSW,205,8.0,19.6,92,0.00,-RA,OVC,0.26,0.0,WeatherDisplay:10.37,2013-01-29 23:24:00,
2013-01-29 18:29:00,54.6,52.3,29.77,South,183,6.6,11.0,92,0.00,-RA,OVC,0.26,0.0,WeatherDisplay:10.37,2013-01-29 23:29:00,
2013-01-29 18:34:00,54.8,52.5,29.78,SSW,212,6.7,13.0,92,0.00,-RA,OVC,0.26,0.0,WeatherDisplay:10.37,2013-01-29 23:34:00,
2013-01-29 18:39:00,55.0,52.7,29.78,South,182,5.0,15.0,92,0.00,-RA,OVC,0.26,0.0,WeatherDisplay:10.37,2013-01-29 23:39:00,
2013-01-29 18:44:00,55.3,53.0,29.79,SSW,211,5.7,13.8,92,0.00,-RA,OVC,0.26,0.0,WeatherDisplay:10.37,2013-01-29 23:44:00,
2013-01-29 18:49:00,55.6,53.0,29.78,SSW,210,6.6,13.0,91,0.00,-RA,OVC,0.26,0.0,WeatherDisplay:10.37,2013-01-29 23:49:00,
2013-01-29 18:54:00,55.8,53.2,29.78,SW,222,4.5,10.4,91,0.00,-RA,OVC,0.26,0.0,WeatherDisplay:10.37,2013-01-29 23:54:00,
2013-01-29 18:59:00,56.0,53.1,29.78,SSW,203,8.0,13.0,90,0.00,-RA,OVC,0.27,0.0,WeatherDisplay:10.37,2013-01-29 23:59:00,
2013-01-29 19:04:00,56.1,53.2,29.78,SSW,201,7.1,15.0,90,0.01,-RA,OVC,0.27,0.0,WeatherDisplay:10.37,2013-01-30 00:04:00,
2013-01-29 19:09:00,56.1,52.9,29.78,SW,223,6.9,13.8,89,0.01,-RA,OVC,0.27,0.0,WeatherDisplay:10.37,2013-01-30 00:09:00,
2013-01-29 19:14:00,56.1,52.9,29.78,SW,214,8.0,13.0,89,0.01,-RA,OVC,0.27,0.0,WeatherDisplay:10.37,2013-01-30 00:14:00,
2013-01-29 19:19:00,56.2,53.0,29.78,SW,218,6.7,13.0,89,0.01,-RA,OVC,0.27,0.0,WeatherDisplay:10.37,2013-01-30 00:19:00,
2013-01-29 19:24:00,56.2,53.0,29.78,SSW,213,9.1,16.1,89,0.01,OVC,,0.27,0.0,WeatherDisplay:10.37,2013-01-30 00:24:00,
2013-01-29 19:29:00,56.2,53.0,29.78,SSW,206,6.3,11.5,89,0.01,OVC,,0.27,0.0,WeatherDisplay:10.37,2013-01-30 00:29:00,
2013-01-29 19:34:00,56.2,53.0,29.79,WSW,239,5.9,13.8,89,0.01,OVC,,0.27,0.0,WeatherDisplay:10.37,2013-01-30 00:34:00,
2013-01-29 19:39:00,56.2,53.0,29.78,SSW,212,5.2,12.7,89,0.01,OVC,,0.27,0.0,WeatherDisplay:10.37,2013-01-30 00:39:00,
2013-01-29 19:44:00,56.1,52.9,29.79,SW,227,3.8,9.2,89,0.01,OVC,,0.27,0.0,WeatherDisplay:10.37,2013-01-30 00:44:00,
2013-01-29 19:49:00,56.1,52.9,29.78,SSW,200,4.5,11.5,89,0.02,RA,OVC,0.28,0.0,WeatherDisplay:10.37,2013-01-30 00:49:00,
2013-01-29 19:54:00,56.1,52.9,29.78,SW,217,3.4,6.9,89,0.02,RA,OVC,0.28,0.0,WeatherDisplay:10.37,2013-01-30 00:54:00,
2013-01-29 19:59:00,56.0,52.8,29.77,SSW,212,2.7,10.4,89,0.02,OVC,,0.28,0.0,WeatherDisplay:10.37,2013-01-30 00:59:00,
2013-01-29 20:04:00,56.0,52.8,29.78,SSW,198,8.2,13.0,89,0.01,OVC,,0.28,0.0,WeatherDisplay:10.37,2013-01-30 01:04:00,
2013-01-29 20:10:00,56.0,52.8,29.77,SW,221,3.4,11.5,89,0.01,OVC,,0.28,0.0,WeatherDisplay:10.37,2013-01-30 01:10:00,
2013-01-29 20:15:00,56.2,53.0,29.77,South,169,4.7,16.1,89,0.01,OVC,,0.28,0.0,WeatherDisplay:10.37,2013-01-30 01:15:00,
2013-01-29 20:20:00,56.3,53.1,29.77,SSW,196,4.7,10.0,89,0.01,OVC,,0.28,0.0,WeatherDisplay:10.37,2013-01-30 01:20:00,
2013-01-29 20:25:00,56.4,52.9,29.77,SW,230,5.2,10.4,88,0.01,-RA,OVC,0.28,0.0,WeatherDisplay:10.37,2013-01-30 01:25:00,
2013-01-29 20:30:00,56.5,53.0,29.77,SSW,198,4.8,12.0,88,0.01,-RA,OVC,0.28,0.0,WeatherDisplay:10.37,2013-01-30 01:30:00,
2013-01-29 20:35:00,56.6,53.1,29.77,SW,217,5.1,11.0,88,0.01,-RA,OVC,0.28,0.0,WeatherDisplay:10.37,2013-01-30 01:35:00,
2013-01-29 20:40:00,56.7,53.2,29.77,SW,217,7.0,12.7,88,0.01,-RA,OVC,0.28,0.0,WeatherDisplay:10.37,2013-01-30 01:40:00,
2013-01-29 20:45:00,56.9,53.4,29.77,SW,230,6.1,11.5,88,0.01,-RA,OVC,0.28,0.0,WeatherDisplay:10.37,2013-01-30 01:45:00,
2013-01-29 20:50:00,57.1,53.3,29.77,SW,217,5.3,12.7,87,0.00,-RA,OVC,0.28,0.0,WeatherDisplay:10.37,2013-01-30 01:50:00,
2013-01-29 20:55:00,57.1,53.3,29.76,SSW,204,7.9,15.0,87,0.01,-RA,OVC,0.29,0.0,WeatherDisplay:10.37,2013-01-30 01:55:00,
2013-01-29 21:00:00,57.1,53.3,29.76,SW,221,1.4,10.4,87,0.01,-RA,OVC,0.29,0.0,WeatherDisplay:10.37,2013-01-30 02:00:00,
2013-01-29 21:05:00,57.0,53.2,29.76,South,184,3.7,9.2,87,0.01,-RA,OVC,0.29,0.0,WeatherDisplay:10.37,2013-01-30 02:05:00,
2013-01-29 21:12:00,56.1,54.1,29.78,SSW,205,5.0,5.0,93,0.00,,,0.37,0.00,VWS V14.01,2013-01-30 02:12:00,
2013-01-29 21:17:00,56.2,54.2,29.78,SSW,200,3.0,3.0,93,0.01,,-RA,0.38,0.00,VWS V14.01,2013-01-30 02:17:00,
2013-01-29 21:22:00,57.0,53.2,29.76,SSW,194,4.3,7.0,87,0.02,-RA,OVC,0.30,0.0,WeatherDisplay:10.37,2013-01-30 02:22:00,
2013-01-29 21:27:00,57.0,53.5,29.75,SSW,201,4.4,9.2,88,0.02,-RA,OVC,0.30,0.0,WeatherDisplay:10.37,2013-01-30 02:27:00,
2013-01-29 21:32:00,56.2,54.2,29.77,South,175,4.0,5.0,93,0.01,,-RA,0.38,0.00,VWS V14.01,2013-01-30 02:32:00,
2013-01-29 21:37:00,57.1,53.6,29.76,SSW,198,8.9,12.0,88,0.03,-RA,OVC,0.31,0.0,WeatherDisplay:10.37,2013-01-30 02:37:00,
2013-01-29 21:42:00,56.3,54.3,29.77,SSE,153,2.0,3.0,93,0.02,,-RA,0.39,0.00,VWS V14.01,2013-01-30 02:42:00,
2013-01-29 21:47:00,56.4,54.4,29.77,SW,225,5.0,5.0,93,0.03,,-RA,0.40,0.00,VWS V14.01,2013-01-30 02:47:00,
2013-01-29 21:52:00,57.2,53.7,29.76,SW,219,6.0,11.0,88,0.05,-RA,OVC,0.34,0.0,WeatherDisplay:10.37,2013-01-30 02:52:00,
2013-01-29 21:57:00,56.4,54.7,29.77,SSE,163,4.0,6.0,94,0.06,,-RA,0.43,0.00,VWS V14.01,2013-01-30 02:57:00,
2013-01-29 22:02:00,56.4,54.7,29.77,South,186,4.0,6.0,94,0.07,,-RA,0.44,0.00,VWS V14.01,2013-01-30 03:02:00,
2013-01-29 22:07:00,57.2,53.7,29.75,South,190,3.6,9.2,88,0.08,-RA,OVC,0.37,0.0,WeatherDisplay:10.37,2013-01-30 03:07:00,
2013-01-29 22:12:00,56.3,54.6,29.76,South,186,2.0,4.0,94,0.08,,-RA,0.45,0.00,VWS V14.01,2013-01-30 03:12:00,
2013-01-29 22:17:00,57.1,53.6,29.74,SSW,192,1.5,4.0,88,0.07,OVC,,0.37,0.0,WeatherDisplay:10.37,2013-01-30 03:17:00,
2013-01-29 22:22:00,57.1,53.9,29.74,South,191,2.5,5.8,89,0.07,OVC,,0.37,0.0,WeatherDisplay:10.37,2013-01-30 03:22:00,
2013-01-29 22:27:00,56.2,54.5,29.74,SE,135,5.0,8.0,94,0.08,,-RA,0.46,0.00,VWS V14.01,2013-01-30 03:27:00,
2013-01-29 22:32:00,56.0,54.3,29.74,SW,215,5.0,7.0,94,0.08,,-RA,0.46,0.00,VWS V14.01,2013-01-30 03:32:00,
2013-01-29 22:37:00,55.9,54.2,29.74,SE,130,4.0,4.0,94,0.08,,RA,0.46,0.00,VWS V14.01,2013-01-30 03:37:00,
2013-01-29 22:42:00,55.9,54.2,29.73,South,186,6.0,6.0,94,0.07,,RA,0.46,0.00,VWS V14.01,2013-01-30 03:42:00,
2013-01-29 22:47:00,56.6,53.4,29.71,SSE,162,7.8,12.0,89,0.06,OVC,,0.38,0.0,WeatherDisplay:10.37,2013-01-30 03:47:00,
2013-01-29 22:52:00,56.0,54.3,29.73,SSE,158,7.0,8.0,94,0.04,,RA,0.46,0.00,VWS V14.01,2013-01-30 03:52:00,
2013-01-29 22:57:00,56.9,53.7,29.71,South,180,8.2,14.0,89,0.03,OVC,,0.38,0.0,WeatherDisplay:10.37,2013-01-30 03:57:00,
2013-01-29 23:02:00,56.3,54.6,29.72,SSE,153,7.0,7.0,94,0.02,,RA,0.46,0.00,VWS V14.01,2013-01-30 04:02:00,
2013-01-29 23:06:00,56.4,54.7,29.72,South,187,3.0,7.0,94,0.01,,RA,0.46,0.00,VWS V14.01,2013-01-30 04:06:00,
2013-01-29 23:11:00,57.3,53.8,29.70,SSE,159,10.7,16.1,88,0.02,-RA,OVC,0.40,0.0,WeatherDisplay:10.37,2013-01-30 04:11:00,
2013-01-29 23:16:00,56.6,54.6,29.72,SSW,205,5.0,11.0,93,0.05,,RA,0.50,0.00,VWS V14.01,2013-01-30 04:16:00,
2013-01-29 23:21:00,56.6,54.6,29.71,SSE,163,7.0,11.0,93,0.05,,RA,0.51,0.00,VWS V14.01,2013-01-30 04:21:00,
2013-01-29 23:26:00,56.7,54.7,29.72,SW,225,5.0,10.0,93,0.05,,RA,0.51,0.00,VWS V14.01,2013-01-30 04:26:00,
2013-01-29 23:31:00,56.7,54.7,29.71,SW,215,4.0,6.0,93,0.06,,-RA,0.52,0.00,VWS V14.01,2013-01-30 04:31:00,
2013-01-29 23:36:00,57.5,53.7,29.69,SSE,164,7.1,11.5,87,0.06,-RA,OVC,0.44,0.0,WeatherDisplay:10.37,2013-01-30 04:36:00,
2013-01-29 23:41:00,56.7,54.7,29.71,SSE,155,3.0,5.0,93,0.07,,-RA,0.53,0.00,VWS V14.01,2013-01-30 04:41:00,
2013-01-29 23:46:00,57.6,53.8,29.69,SSE,161,5.7,9.2,87,0.07,-RA,OVC,0.45,0.0,WeatherDisplay:10.37,2013-01-30 04:46:00,
2013-01-29 23:51:00,56.7,54.7,29.70,South,182,3.0,4.0,93,0.08,,-RA,0.54,0.00,VWS V14.01,2013-01-30 04:51:00,
2013-01-29 23:56:00,57.3,53.5,29.67,SE,130,6.9,10.0,87,0.07,-RA,OVC,0.45,0.0,WeatherDisplay:10.37,2013-01-30 04:56:00,